Location: ???????
(55.4362°N, 38.1183°E)
Time: 13:04:25
(UTC+00:00)

Lacrosse 4 Rocket - Pass Details

Date: 27 October 2021
Orbit: 537 x 619 km, 68.0° (Epoch: 03 December)

Event Time Altitude Azimuth Distance (km) Brightness Sun altitude
Rises 16:02:40 0° 310° (NW) 2,818 5.8 -17.9°
Reaches altitude 10° 16:05:33 10° 290° (WNW) 1,929 5.2 -18.3°
Maximum altitude 16:08:17 17° 251° (WSW) 1,555 4.5 -18.7°
Drops below altitude 10° 16:11:02 10° 212° (SSW) 1,949 4.4 -19.1°
Sets 16:13:59 0° 191° (SSW) 2,861 5.1 -19.5°
